New Bern, NC

11:15 PM EDT on June 27, 2017 (GMT -0400)
Craven County Regional

Weather History for KEWN - June, 2014

Change the Weather History Date:

Saturday, June 28, 2014

  Actual Average Record
Temperature  
Mean Temperature 77 °F 80 °F  
Max Temperature 84 °F 89 °F 99 °F (1959)
Min Temperature 70 °F 70 °F 58 °F (1985)
Degree Days  
Heating Degree Days 0 0  
Month to date heating degree days 0 0  
Since 1 June heating degree days 0 0  
Since 1 July heating degree days 2637 2701  
Cooling Degree Days 12 15  
Month to date cooling degree days 397 335  
Year to date cooling degree days 758 578  
Since 1 June cooling degree days 397 335  
Growing Degree Days 28 (Base 50)    
Moisture  
Dew Point 71 °F    
Average Humidity 76    
Maximum Humidity 93    
Minimum Humidity 58    
Precipitation  
Precipitation 0.04 in 0.17 in 1.11 in (1986)
Month to date precipitation 3.49 4.25  
Year to date precipitation 21.37 23.64  
Snow  
Snow 0.00 in - - ()
Month to date snowfall 0.0  
Since 1 July snowfall 14.0  
Snow Depth 0.00 in    
Sea Level Pressure  
Sea Level Pressure 30.16 in    
Wind  
Wind Speed 9 mph (NE)    
Max Wind Speed 18 mph    
Max Gust Speed 24 mph    
Visibility 10 miles    
Events Rain    
T = Trace of Precipitation, MM = Missing Value Source: NWS Daily Summary

Daily Weather History Graph

Daily Weather History Graph

Search for Another Location

Airport or City:

Trip Planner

Search our weather history database for the weather conditions in past years. The results will help you decide how hot, cold, wet, or windy it might be!

Date:

Astronomy

Jun. 28, 2014 Rise Set
Actual Time 5:56 AM EDT 8:26 PM EDT
Civil Twilight 5:26 AM EDT 8:56 PM EDT
Nautical Twilight 4:50 AM EDT 9:32 PM EDT
Astronomical Twilight 4:09 AM EDT 10:13 PM EDT
Moon 7:13 AM EDT 9:15 PM EDT
Length of Visible Light 15h 29m
Length of Day
14h 29m
New Moon, 2% of the Moon is Illuminated
Jun 28
New Moon
Jul 5
First Quarter
Jul 12
Full
Jul 18
Last Quarter
Jul 26
New

Hourly Weather History & Observations

Time (EDT) Temp. Heat Index Dew Point Humidity Pressure Visibility Wind Dir Wind Speed Gust Speed Precip Events Conditions
12:54 AM 73.0 °F - 69.1 °F 87% 30.12 in 10.0 mi NNE 3.5 mph - N/A   Clear
1:54 AM 73.0 °F - 70.0 °F 90% 30.11 in 10.0 mi North 3.5 mph - N/A   Scattered Clouds
2:54 AM 73.9 °F - 70.0 °F 87% 30.10 in 10.0 mi NE 4.6 mph - N/A   Clear
3:54 AM 73.9 °F - 71.1 °F 91% 30.10 in 10.0 mi NE 3.5 mph - N/A   Mostly Cloudy
4:54 AM 75.0 °F - 72.0 °F 90% 30.11 in 10.0 mi NNE 3.5 mph - N/A   Scattered Clouds
5:02 AM 75.2 °F - 71.6 °F 89% 30.11 in 10.0 mi NNE 5.8 mph - N/A   Mostly Cloudy
5:54 AM 75.0 °F - 71.1 °F 87% 30.11 in 10.0 mi NNE 5.8 mph - N/A   Mostly Cloudy
6:03 AM 75.2 °F - 71.6 °F 89% 30.11 in 10.0 mi NNE 6.9 mph - N/A   Partly Cloudy
6:54 AM 75.9 °F - 72.0 °F 87% 30.13 in 10.0 mi NE 10.4 mph - N/A   Mostly Cloudy
7:26 AM 77.0 °F - 73.4 °F 89% 30.13 in 9.0 mi NE 8.1 mph - N/A   Partly Cloudy
7:42 AM 78.8 °F - 73.4 °F 83% 30.13 in 9.0 mi NE 10.4 mph - N/A   Mostly Cloudy
7:54 AM 78.1 °F - 73.0 °F 84% 30.14 in 10.0 mi NE 9.2 mph - N/A   Mostly Cloudy
8:40 AM 78.8 °F - 73.4 °F 83% 30.15 in 10.0 mi NE 10.4 mph - N/A   Overcast
8:54 AM 80.1 °F 84.5 °F 73.9 °F 81% 30.16 in 10.0 mi ENE 9.2 mph - N/A   Overcast
9:29 AM 82.4 °F 88.2 °F 73.4 °F 74% 30.16 in 10.0 mi NE 8.1 mph - N/A   Mostly Cloudy
9:40 AM 80.6 °F 85.4 °F 73.4 °F 79% 30.16 in 10.0 mi NE 10.4 mph - N/A   Mostly Cloudy
9:54 AM 82.9 °F 89.4 °F 73.9 °F 74% 30.16 in 10.0 mi NE 10.4 mph - N/A   Mostly Cloudy
10:10 AM 82.4 °F 88.2 °F 73.4 °F 74% 30.16 in 10.0 mi NE 10.4 mph - N/A   Scattered Clouds
10:23 AM 82.4 °F 88.2 °F 73.4 °F 74% 30.16 in 10.0 mi NE 12.7 mph - N/A   Mostly Cloudy
10:30 AM 82.4 °F 88.2 °F 73.4 °F 74% 30.16 in 10.0 mi NE 12.7 mph - N/A   Mostly Cloudy
10:39 AM 80.6 °F 84.6 °F 71.6 °F 74% 30.17 in 10.0 mi East 15.0 mph 20.7 mph N/A   Mostly Cloudy
10:49 AM 78.8 °F - 71.6 °F 78% 30.17 in 9.0 mi East 12.7 mph 21.9 mph 0.00 in Rain Light Rain
10:54 AM 78.1 °F - 72.0 °F 81% 30.17 in 6.0 mi East 13.8 mph - 0.01 in Rain Rain
11:54 AM 80.1 °F 85.1 °F 75.0 °F 85% 30.18 in 6.0 mi ENE 8.1 mph - 0.02 in Rain Light Rain
12:54 PM 81.0 °F 86.2 °F 73.9 °F 79% 30.18 in 10.0 mi NE 6.9 mph - 0.01 in Rain Light Rain
1:54 PM 82.9 °F 88.0 °F 72.0 °F 69% 30.19 in 10.0 mi NE 15.0 mph 21.9 mph 0.00 in   Mostly Cloudy
2:54 PM 82.0 °F 87.9 °F 73.9 °F 76% 30.19 in 10.0 mi NE 11.5 mph 17.3 mph N/A   Overcast
3:54 PM 81.0 °F 84.9 °F 71.1 °F 72% 30.18 in 10.0 mi East 10.4 mph - N/A   Overcast
4:54 PM 82.0 °F 85.9 °F 70.0 °F 67% 30.19 in 10.0 mi East 10.4 mph 17.3 mph N/A   Mostly Cloudy
5:54 PM 82.0 °F 85.5 °F 69.1 °F 65% 30.19 in 10.0 mi East 9.2 mph - N/A   Clear
6:54 PM 81.0 °F 83.3 °F 66.9 °F 62% 30.19 in 10.0 mi East 10.4 mph - N/A   Clear
7:54 PM 79.0 °F - 63.0 °F 58% 30.20 in 10.0 mi ENE 10.4 mph - N/A   Clear
8:54 PM 75.9 °F - 61.0 °F 60% 30.20 in 10.0 mi ENE 8.1 mph - N/A   Clear
9:54 PM 73.9 °F - 62.1 °F 66% 30.20 in 10.0 mi ENE 8.1 mph - N/A   Clear
10:54 PM 73.0 °F - 62.1 °F 68% 30.21 in 10.0 mi ENE 8.1 mph - N/A   Clear
11:54 PM 72.0 °F - 62.1 °F 71% 30.21 in 10.0 mi NE 9.2 mph - N/A   Clear